Lid_Strength_Index
4 3 2 2 2 1 1 1 1 1 1 2 1 2 1 1 0 -0 -0 0 -0 -0 -0 -1 -0 -1 -0 -0 -0 0 1 1 0 1 1 1 1 0 0 -0 -1 -1 -1
5 4 3 2 2 2 2 1 1 1 1 2 1 1 1 1 1 -0 -0 -1 -1 -1 -0 -1 -0 -0 0 -0 0 0 1 1 0 2 2 4 2 1 1 -0 0 -0 -1
5 5 4 3 2 2 2 2 1 1 1 2 1 1 1 1 1 1 0 -0 -1 -1 -1 -1 -0 0 -0 1 0 0 0 2 1 0 2 4 5 3 1 1 0 -0 -0
4 5 4 3 3 2 1 1 1 1 1 2 1 1 2 2 1 1 0 -0 -1 -0 -0 -0 -0 0 -0 -0 -0 -0 -0 0 1 1 1 1 2 4 5 1 1 0 0
5 5 4 3 2 2 2 1 1 1 1 1 1 1 2 1 1 1 0 -0 -0 -0 -0 -1 -1 -0 -0 -0 -0 -0 -0 0 1 1 1 1 1 2 3 4 3 1 0
5 4 4 3 3 2 2 1 1 1 1 1 2 1 2 2 1 1 1 1 0 -0 -0 -1 -1 -0 -0 -0 -0 -0 -0 -0 0 1 1 1 2 3 3 3 3 3 1
5 4 4 4 3 3 2 2 2 2 1 1 1 1 1 1 1 1 1 1 1 0 0 -0 -0 -0 -1 -0 -1 -0 -0 -0 0 0 1 1 1 1 2 2 3 3 2
5 5 4 4 3 3 2 2 2 2 1 1 1 2 1 1 1 1 1 1 1 0 -0 0 -0 -0 -1 -0 -0 -0 -0 -0 0 0 0 0 0 0 1 2 2 4 3
5 5 4 4 3 3 2 2 2 2 1 1 1 1 2 1 1 1 1 0 -0 -0 -0 -0 0 -0 -1 -0 -0 -0 0 -0 -0 0 0 0 0 -0 0 1 2 2 5
5 4 4 3 4 3 2 2 2 2 1 1 1 1 1 1 0 1 1 0 0 0 -0 -0 -0 -0 -0 -0 -0 -0 -0 0 0 0 0 0 0 0 0 0 1 2 3
6 4 4 3 3 3 2 2 2 2 1 1 1 1 1 1 1 1 0 0 0 0 1 -0 0 0 0 -0 0 0 0 0 0 0 0 0 -0 0 0 1 1 1 1
5 4 4 4 3 3 2 2 2 2 1 1 1 1 1 1 1 1 1 0 0 -0 0 1 0 0 0 -0 0 1 0 1 1 1 0 1 0 0 0 0 1 1 1
6 5 5 4 4 3 3 2 2 2 1 1 1 1 1 1 1 1 0 0 0 0 -0 -0 1 0 0 0 0 0 0 0 0 0 1 1 0 1 1 1 1 1 1
7 6 6 6 5 4 3 2 2 1 1 1 2 2 2 2 1 1 1 0 0 0 0 0 0 0 0 0 0 0 0 0 0 0 0 0 0 1 1 1 1 1 1
7 7 6 6 6 6 5 4 2 2 1 2 2 2 1 1 1 1 1 0 0 0 0 0 0 0 0 0 0 0 0 1 1 0 0 -0 -0 1 0 1 1 1 1
6 7 7 6 6 6 6 5 5 2 2 2 2 1 1 1 2 2 1 1 1 1 1 1 0 1 0 3 3 1 1 1 1 1 0 -0 0 0 2 3 3 1 1
6 7 7 7 6 5 6 6 6 4 2 2 2 2 1 1 1 2 2 2 1 1 1 1 1 1 0 3 3 3 0 1 1 1 1 1 0 1 -0 2 3 3 4
7 5 7 6 6 4 5 6 6 6 5 4 2 1 1 2 1 1 2 2 2 1 1 1 1 1 1 4 4 3 0 0 0 0 0 0 0 0 0 0 1 0 0
7 7 5 5 5 5 4 5 6 7 7 7 6 5 3 2 2 2 2 2 2 2 2 1 1 1 1 5 5 4 1 1 1 0 0 0 0 3 5 1 1 1 1
7 8 7 6 6 5 4 5 6 7 7 7 7 6 5 3 3 2 2 1 2 2 2 2 2 3 1 5 6 4 1 1 1 1 0 5 1 5 6 1 1 2 1
7 8 8 7 6 6 5 5 5 7 6 7 6 6 5 5 3 3 2 1 1 1 1 1 2 2 3 3 8 7 1 1 1 1 1 1 6 7 8 7 1 1 1
7 7 9 9 7 5 5 5 6 6 6 6 7 6 5 4 3 3 1 1 1 2 2 2 2 1 1 6 7 9 7 3 1 2 1 1 7 9 9 8 6 7 6
8 7 8 9 9 6 5 6 5 5 7 7 6 6 5 5 4 4 2 2 2 2 3 2 2 2 1 1 8 10 9 8 1 1 2 5 8 10 9 10 8 9 4
9 8 8 9 10 8 6 5 5 6 7 7 7 7 7 6 4 3 3 2 2 2 3 3 3 2 2 1 1 4 7 8 6 4 2 3 5 7 5 5 6 5 4
8 8 8 8 9 9 8 6 6 6 8 8 8 7 7 7 5 4 4 3 2 2 2 2 2 2 3 2 3 3 2 2 4 4 2 2 2 2 2 2 2 2 3
7 7 8 8 8 8 8 7 6 7 8 7 7 8 8 7 5 4 4 7 9 11 13 11 5 1 6 9 12 12 12 11 12 4 2 2 2 2 2 2 2 1 2